Home > Weather > Decatur > Past weeks

Flag for USA Past Weather in Decatur, Illinois, USA — Yesterday and Last 2 Weeks

Now
83 °F

Scattered clouds.


Feels Like: 89 °F
Forecast: 71 / 82 °F
Wind: 7 mph from Southwest

Location: Decatur Airport

Current Time: Jul 28, 2016 at 1:20:41 PM

Latest Report: Jul 28, 2016 at 12:54 PM


Visibility: 10 mi

Pressure: 29.87 "Hg

Humidity: 74%

Dew Point: 74 °F

Location of DecaturLocation

Past Weather in Decatur — Graph

°F

Decatur Temperature Yesterday

Maximum temperature yesterday: 87 °F (at 1:54 PM)
Minimum temperature yesterday: 65 °F (at 4:54 AM)
Average temperature yesterday: 77 °F

High & Low Weather Summary for the Past Weeks

 TemperatureHumidityPressure
High94 °F (Jul 24, 3:54 PM)97% (Jul 24, 11:54 PM)30.23 "Hg (Jul 24, 11:54 PM)
Low62 °F (Jul 16, 5:54 AM)48% (Jul 14, 3:54 PM)29.78 "Hg (Jul 13, 4:54 PM)
Average79 °F77%30.03 "Hg
* Reported Jul 13 11:54 AM — Jul 28 11:54 AM, Decatur, Weather by CustomWeather, © 2016

Note: Actual official high and low records may vary slightly from our data, if they occured in-between our weather recording intervals... More about our weather records

Advertising

Decatur Weather History for the Previous 24 Hours

Scroll right to see more
 ConditionsComfort  
Time TempWeatherWind HumidityBarometerVisibility
11:54 AM
Thu, Jul 28
82 °FSunny.5 mph70%29.87 "Hg10 mi
10:54 AM80 °FPassing clouds.7 mph76%29.89 "Hg10 mi
9:54 AM79 °FSunny.8 mph79%29.89 "Hg10 mi
9:04 AM75 °FPassing clouds.6 mph90%29.92 "Hg10 mi
8:54 AM74 °FThundershowers. Broken clouds.6 mph94%29.90 "Hg10 mi
7:54 AM75 °FThundershowers. Overcast.No wind85%29.89 "Hg10 mi
6:54 AM72 °FThunderstorms. Mostly cloudy.3 mph91%29.88 "Hg9 mi
5:54 AM71 °FRain. Fog.No wind93%29.87 "Hg5 mi
4:54 AM72 °FClear.No wind91%29.86 "Hg10 mi
3:54 AM72 °FPassing clouds.3 mph91%29.86 "Hg8 mi
2:54 AM71 °FPassing clouds.5 mph93%29.88 "Hg9 mi
1:54 AM74 °FClear.3 mph88%29.88 "Hg10 mi
12:54 AM74 °FClear.5 mph88%29.91 "Hg10 mi
11:54 PM
Wed, Jul 27
74 °FPassing clouds.5 mph91%29.92 "Hg10 mi
10:54 PM75 °FPassing clouds.3 mph90%29.93 "Hg10 mi
9:54 PM74 °FPassing clouds.5 mph94%29.94 "Hg10 mi
8:54 PM78 °FSunny.5 mph84%29.91 "Hg10 mi
7:54 PM81 °FSunny.6 mph79%29.90 "Hg10 mi
6:54 PM83 °FMore clouds than sun.5 mph74%29.90 "Hg10 mi
5:54 PM84 °FPassing clouds.6 mph67%29.91 "Hg10 mi
4:54 PM86 °FScattered clouds.6 mph63%29.93 "Hg10 mi
3:54 PM86 °FPartly sunny.6 mph65%29.94 "Hg10 mi
2:54 PM83 °FSunny.3 mph70%29.96 "Hg10 mi
1:54 PM87 °FSunny.7 mph59%29.97 "Hg10 mi
Weather by CustomWeather, © 2016

See weather overviewHow to use our weather pages